Regional Weather Roundup
Issued by NWS

Home | Current Version | Previous Version | Text Only | Print | Product List | Glossary Off
Versions: 1 2 3 4 5 6 7 8 9 10 11 12 13 14 15 16 17 18 19 20 21 22 23 24 25 26 27 28 29 30 31 32 33 34 35 36 37 38 39 40 41 42 43 44 45 46 47 48 49 50

000
ASUS43 KDMX 251801
RWRIA

WEATHER ROUNDUP FOR IOWA
NATIONAL WEATHER SERVICE DES MOINES IA
100 PM CDT TUE JUL 25 2017

NOTE: "FAIR" INDICATES FEW OR NO CLOUDS BELOW 12,000 FEET WITH NO
SIGNIFICANT WEATHER AND/OR OBSTRUCTIONS TO VISIBILITY.

* - THESE STATIONS ARE NOT NWS STATIONS...THUS NOT UNDER NWS
QUALITY CONTROL.  THEY ALSO DO NOT REPORT WEATHER SUCH
AS PRECIPITATION OR FOG.

IAZ001>003-012>014-020>022-031>034-043>046-251900-
   NORTHWEST IOWA

CITY           SKY/WX    TMP DP  RH WIND       PRES   REMARKS
CARROLL *      SUNNY     86  73  66 S16G23    30.02S HX  93
CHEROKEE *     SUNNY     89  73  59 S13       29.98S HX  96
DENISON *      SUNNY     86  73  66 S16G22    30.02F HX  93
ORANGE CITY *  SUNNY     88  73  62 S13       29.96S HX  96
SHELDON *      SUNNY     86  73  66 S14G21    29.95S HX  93
SIOUX CITY     SUNNY     92  73  53 S14G25    29.96R HX 100
6HR MIN TEMP:  70; 6HR MAX TEMP:  92;

SPENCER        MOSUNNY   88  71  57 S16G23    29.98F HX  94
6HR MIN TEMP:  68; 6HR MAX TEMP:  88;

STORM LAKE *   SUNNY     86  72  62 S14G22    30.01S HX  92
$$

IAZ055>058-069>071-079>083-090>094-251900-
   SOUTHWEST IOWA

CITY           SKY/WX    TMP DP  RH WIND       PRES   REMARKS
ATLANTIC *     SUNNY     88  72  58 S12G20    30.04S HX  94
AUDUBON *      SUNNY     88  73  62 S13G18    30.05S HX  96
CLARINDA *     SUNNY     86  77  74 S8G15     30.06S HX  97
COUNCIL BLFS * SUNNY     88  75  66 S13       30.02S HX  97
CRESTON *      SUNNY     86  72  62 S10G17    30.08F HX  92
HARLAN  *      SUNNY     88  73  62 S16       30.06S HX  96
LAMONI         SUNNY     85  72  65 S10       30.09F HX  91
6HR MIN TEMP:  67; 6HR MAX TEMP:  86;

RED OAK *      SUNNY     88  75  66 S13       30.04S HX  97
SHENANDOAH *   SUNNY     88  75  66 S10G17    30.03F HX  97
$$

IAZ047>049-059>061-072>074-084-251900-
   CENTRAL IOWA

CITY           SKY/WX    TMP DP  RH WIND       PRES   REMARKS
AMES           SUNNY     84  70  62 S17       30.06F HX  88
6HR MIN TEMP:  65; 6HR MAX TEMP:  84;

ANKENY *       SUNNY     84  70  61 SE13      30.07F HX  88
BOONE *        SUNNY     84  70  61 SE16      30.05F HX  88
CHARITON *     SUNNY     86  66  51 SE13      30.08F HX  88
DES MOINES     MOSUNNY   89  67  47 S14G21    30.06F HX  92
6HR MIN TEMP:  68; 6HR MAX TEMP:  89;

GRINNELL*      CLOUDY    82  68  61 SE12      30.12F HX  85
KNOXVILLE *    SUNNY     86  66  51 S9G15     30.07F HX  88
MARSHALLTOWN   SUNNY     83  68  60 S17       30.09S HX  86
6HR MIN TEMP:  64; 6HR MAX TEMP:  83;

NEWTON *       SUNNY     82  68  61 S13       30.09F HX  85
PELLA *        SUNNY     86  65  49 SE6       30.10F HX  88
$$

IAZ004>006-015-016-023>025-035-036-251900-
   NORTH CENTRAL IOWA

CITY           SKY/WX    TMP DP  RH WIND       PRES   REMARKS
ALGONA *       SUNNY     82  72  69 S17G26    30.02S HX  87
ESTHERVILLE    MOSUNNY   80  71  74 S16G28    29.98F HX  84
6HR MIN TEMP:  65; 6HR MAX TEMP:  82;

FORT DODGE *   SUNNY     86  70  58 S16       30.04  HX  90
MASON CITY     SUNNY     81  69  67 SE20G28   30.07F HX  84
6HR MIN TEMP:  63; 6HR MAX TEMP:  81;

FOREST CITY *    N/A     81  68  65 S17G26    30.05F HX  83
WEBSTER CITY * SUNNY     84  70  61 S14G24    30.03S HX  88
IOWA FALLS *     N/A     83  68  59 SE17G23   30.09S HX  86
$$

IAZ007>011-017>019-026>030-037>042-050>054-066-251900-
   NORTHEAST IOWA

CITY           SKY/WX    TMP DP  RH WIND       PRES   REMARKS
CEDAR RAPIDS   MOSUNNY   78  70  76 S8        30.13S HX  80
6HR MIN TEMP:  62; 6HR MAX TEMP:  79;

CHARLES CITY * CLOUDY    77  70  78 SE17      30.11F
DECORAH *      CLOUDY    68  66  94 MISG      30.11F
DUBUQUE        CLOUDY    75  65  70 VRB5      30.19R
6HR MIN TEMP:  61; 6HR MAX TEMP:  75;

MONTICELLO *   CLOUDY    77  66  69 SE8       30.15F
OELWEIN *      CLOUDY    75  68  78 E13G18    30.15F
WATERLOO       PTSUNNY   81  68  64 SE14      30.10F HX  84
6HR MIN TEMP:  63; 6HR MAX TEMP:  81;

$$

IAZ064-065-067-068-078-251900-
   EAST CENTRAL IOWA

CITY           SKY/WX    TMP DP  RH WIND       PRES   REMARKS
DAVENPORT      MOSUNNY   78  66  66 SE10      30.18S HX  80
6HR MIN TEMP:  62; 6HR MAX TEMP:  79;

IOWA CITY      MOSUNNY   82  69  64 SE10      30.14F HX  85
6HR MIN TEMP:  64; 6HR MAX TEMP:  82;

MUSCATINE *    MOSUNNY   81  66  61 SE7G17    30.14S HX  83
QUAD CITIES    MOSUNNY   80  66  62 SE10      30.15F HX  82
6HR MIN TEMP:  62; 6HR MAX TEMP:  80;

$$

IAZ062-063-075>077-085>089-095>099-251900-
   SOUTHEAST IOWA

CITY           SKY/WX    TMP DP  RH WIND       PRES   REMARKS
BURLINGTON     MOSUNNY   82  69  64 SE7       30.14S HX  85
6HR MIN TEMP:  65; 6HR MAX TEMP:  82;

FAIRFIELD *    SUNNY     84  63  48 SE15      30.11S HX  85
FORT MADISON * MOSUNNY   81  70  69 E7        30.14F HX  84
KEOKUK *       MOSUNNY   82  68  61 E12       30.12F HX  85
OSKALOOSA *      N/A     85  66  52 SE10G16   30.11S HX  87
OTTUMWA        SUNNY     86  64  47 SE9       30.09F HX  87
6HR MIN TEMP:  65; 6HR MAX TEMP:  86;

WASHINGTON *   SUNNY     82  70  65 SE10      30.14S HX  86
$$

ABBREVIATIONS USED IN REMARKS
   TC - TEMPERATURES IN CELSIUS
  WCI - WIND CHILL INDEX
   HX - HEAT INDEX
  VSB - VISIBILITY
$$





USA.gov is the U.S. government's official web portal to all federal, state and local government web resources and services.